Regional Weather Roundup
Issued by NWS

Home | Current Version | Previous Version | Text Only | Print | Product List | Glossary Off
Versions: 1 2 3 4 5 6 7 8 9 10 11 12 13 14 15 16 17 18 19 20 21 22 23 24 25 26 27 28 29 30 31 32 33 34 35 36 37 38 39 40 41 42 43 44 45 46 47 48 49 50

589
ASUS44 KLIX 241010
RWRLA
LOUISIANA WEATHER ROUNDUP
NATIONAL WEATHER SERVICE NEW ORLEANS LA
400 AM CST MON NOV 24 2014

NOTE: "FAIR" INDICATES FEW OR NO CLOUDS BELOW 12,000 FEET WITH NO
      SIGNIFICANT WEATHER AND/OR OBSTRUCTIONS TO VISIBILITY.
      SKY/WX - SKY CONDITION AND SIGNIFICANT WEATHER.
      TMP - AIR TEMPERATURE.    DP   - DEWPOINT TEMPERATURE.
      RH  - RELATIVE HUMIDITY.  PRES - PRESSURE.
      HX  - HEAT INDEX.         WCI  - WIND CHILL INDEX.

*  THESE STATIONS ARE NOT NWS OR FAA STATIONS AND ARE NOT UNDER
   NWS QUALITY CONTROL.

LAZ040-048-061>063-065-066-069-241100-
SOUTHEAST LOUISIANA

CITY           SKY/WX    TMP DP  RH WIND       PRES   REMARKS
N.O. AUDUBON   NOT AVBL
N.O. INTL ARPT CLOUDY    68  66  93 SW9       29.77R FOG
N.O. LAKEFRONT CLOUDY    68  65  90 SW13      29.77R FOG
N.O. DOWNTOWN* CLOUDY    68  64  88 SW7       29.78R
SLIDELL        CLOUDY    68  66  93 SW7       29.77R FOG
BATON ROUGE    PTCLDY    64  63  96 W9        29.76R
BOOTHVILLE     FOG       66  66 100 S8        29.79S VSB 1/4
BELLE CHASSE   PTCLDY    69  65  86 SW8       29.77R
BOGALUSA*        N/A     67  63  87 SW6       29.77R FOG
NEW ROADS*     FAIR      64  61  93 W7        29.76R
GONZALES*      CLOUDY    65  65 100 CALM      29.76R FOG
HAMMOND*       PTCLDY    66  63  88 W5        29.78R
HOUMA*         MOCLDY    69  68  98 SW5       29.77R FOG
PORT FOURCHON* SUNNY     70  68  94 SW7       29.82R FOG

$$

LAZ041-044-053-054-241100-
SOUTHWEST LOUISIANA

CITY           SKY/WX    TMP DP  RH WIND       PRES   REMARKS
LAKE CHARLES   CLEAR     59  49  69 NW6       29.79R
LAFAYETTE      PTCLDY    65  62  90 W13       29.77S
PATTERSON      PTCLDY    64  64 100 W9        29.79R
SALT POINT       N/A    N/A N/A N/A VRB5      29.76R
NEW IBERIA     PTCLDY    66  64  93 W8        29.77S
CHENAULT AIRPK NOT AVBL

$$

LAZ027-028-241100-
CENTRAL LOUISIANA

CITY           SKY/WX    TMP DP  RH WIND       PRES   REMARKS
FORT POLK      CLEAR     54  45  71 NW17G28   29.80R
ALEXANDRIA INT CLEAR     56  47  71 NW17G24   29.77R
ALEXANDRIA     CLEAR     57  53  86 W6        29.77R

$$

LAZ001-002-241100-
NORTHWEST LOUISIANA

CITY           SKY/WX    TMP DP  RH WIND       PRES   REMARKS
SHREVEPORT     PTCLDY    51  41  68 NW12      29.83R
BARKSDALE AFB  MOCLDY    51  40  64 NW15G21   29.83R
DTN SHREVEPORT PTCLDY    51  39  63 NW12G22   29.83R

$$

LAZ014-016-241100-
NORTHEAST LOUISIANA

CITY           SKY/WX    TMP DP  RH WIND       PRES   REMARKS
MONROE         PTCLDY    53  45  74 W20       29.77R
TALLULAH       CLEAR     57  54  89 W5        29.73R

$$




USA.gov is the U.S. government's official web portal to all federal, state and local government web resources and services.